BREEZE-KM R/B

Satellite information

Favourite Embed

Satellite Type and Status

ROCKET BODYIN ORBIT

Key statistics

Satellite BREEZE-KM R/B at a glance.

Uptime

4891

Days in orbit

Revolutions

≈ 12.8

Per day

Orbit

LEO

Low Earth Orbit

Inclination

82.5

Latest

Satellite identification and parameters

Extended collection of information and parameters for BREEZE-KM R/B.

Object identification

Identified? True

Debris? False

Object name: BREEZE-KM R/B

International designator: 2012-041E

Object number (NORAD): 38737

Object ID (CCSDS): 38737

Country: COMMONWEALTH OF INDEPENDENT STATES (CIS)

Current information (Y/N): Y

RCS size: LARGE

Orbital parameters

Period: 112.338 minutes

Inclination: 82.4782 deg

SMA: 7712.196 km

Apoapsis: 1507.439 km

Periapsis: 1160.682 km

RAAN: 316.5827 deg

Eccentricy: 0.02248109

Argument of periapsis: 322.7435 deg

Mean anomaly: 35.8249 deg

Mean motion: 12.81845587 rev/day

Mean motion (dot): -0.00000003 rev/day2

B* drag term: -0.00004865226 1/REarth

Two-line elements (TLE)

Creation date: Dec. 17, 2025, 7:48 p.m.

Reference frame: TEME

Reference center: EARTH

Epoch: Dec. 17, 2025, 2:59 p.m. UTC

TLE line 0: 0 BREEZE-KM R/B

TLE line 1: 1 38737U 12041E 25351.62460944 -.00000003 00000-0 -48652-4 0 9991

TLE line 2: 2 38737 82.4782 316.5827 0224811 322.7435 35.8249 12.81845587626539

Live tracking on map

Real-time ground track for satellite BREEZE-KM R/B.

In-orbit conjunctions

A list of the most updated potential collisions computed for object BREEZE-KM R/B.

Target Orbit TCA Probability of collision Miss distance Type
ESSA 3 (TOS-A) SSO 2024-11-16 20:00:02 0.0001191071 102.0 (m) PAYLOAD

Associated space launch

Gonets-M are an upgraded version of Gonets satellites, derived from military communications system Strela-3. Gonets-M constellation is tasked with monitoring ecological and industrial objects, providing communication and data transmission services, covering also the remote areas like the Far North region.

BREEZE-KM R/B was lifted into orbit during the mission ‘Rokot / Briz-KM | Gonets M-13, Gonets M-15, Strela-3M (Kosmos-2481) & Yubileyniy 2 (MiR)’, on board a Rokot/Briz-KM space rocket.

The launch took place on July 28, 2012, 1:35 a.m. from 133/3 (133L).

For more information about the launch, click the button.

Launch to space Rokot / Briz-KM | Gonets M-13, Gonets M-15, Strela-3M (Kosmos-2481) & Yubileyniy 2 (MiR)
Rokot / Briz-KM | Gonets M-13, Gonets M-15, Strela-3M (Kosmos-2481) & Yubileyniy 2 (MiR)

Agency: N/A

Status: Launch Successful

Launch date: July 28, 2012, 1:35 a.m. UTC

Rocket: Rokot/Briz-KM

Launch pad: 133/3 (133L)

Location: Plesetsk Cosmodrome, Russian Federation

...

Latest news about this satellite

There are no fresh news available about this satellite. Check back as we update our databases every day.


Newsletter sign-up

Weekly statistics, charts and insights to help you stay on top of the space industry.